Temp
3 2 1 1 3 3 3 3 4 5 5 6 7 7 7 7 7 7 6 6 6 6 7 7 7 6 6 6 6 6 6 6 5 5 5 5 4 4 4 4 4 3 3
2 2 1 1 1 2 2 3 3 4 4 5 5 5 5 5 5 6 6 6 6 6 6 6 6 6 6 6 6 6 6 6 5 5 5 5 4 4 3 3 3 3 2
3 3 3 0 0 0 2 3 2 3 4 4 4 4 5 5 6 6 6 6 6 5 5 5 6 6 6 6 5 5 5 5 5 4 4 4 4 3 3 3 3 2 2
1 2 2 1 1 -0 -1 0 2 2 2 3 3 4 4 4 4 4 4 5 5 5 5 5 5 5 5 5 5 5 5 4 4 4 4 4 3 3 2 2 2 1 1
1 2 2 1 1 -0 -0 0 1 2 2 2 3 3 4 4 4 4 4 5 5 5 5 5 5 5 5 5 4 4 4 3 3 3 3 3 3 3 2 2 1 1 0
1 1 2 2 1 1 0 1 1 2 1 2 2 3 3 3 3 3 4 4 4 5 4 4 5 4 4 4 4 3 3 3 3 3 3 2 1 2 2 1 1 0 0
1 1 1 1 1 0 0 0 1 1 -0 2 2 2 2 2 2 3 3 3 4 4 4 4 4 4 3 3 3 3 3 3 3 2 2 2 1 1 1 0 -0 -0 -1
1 1 1 1 1 1 -0 0 1 1 0 1 1 1 1 1 2 2 2 3 3 3 3 3 3 3 3 2 3 2 2 2 2 2 1 1 1 -0 -1 -1 -1 -2 -2
1 1 1 1 1 2 1 0 1 1 0 2 1 1 0 1 2 2 2 2 1 2 2 2 2 1 2 2 2 2 2 2 1 1 1 0 0 -0 -1 -2 -4 -4 -3
1 0 0 1 1 1 1 1 1 1 0 0 0 1 1 1 1 1 1 1 1 1 1 1 1 1 0 1 1 1 1 1 1 1 0 -0 -0 -1 -2 -3 -5 -6 -6
1 1 0 0 0 0 0 1 1 1 1 1 0 0 0 0 0 1 1 1 1 1 1 1 0 0 -0 -0 -0 -0 0 -0 0 0 -0 -1 -2 -1 -2 -4 -5 -6 -6
0 0 0 0 -0 -0 -0 -0 0 0 1 1 1 1 1 0 -0 2 0 1 1 1 0 0 -1 0 -0 -0 -1 -1 -1 -1 -1 -1 -1 -1 -3 -4 -3 -3 -4 -6 -6
-0 0 0 -0 -1 -1 -1 -1 -1 -0 0 1 1 1 1 1 1 1 -0 -0 0 -0 0 0 0 -0 -1 -1 -1 -1 -2 -2 -2 -4 -3 -2 -3 -3 -3 -4 -5 -6 -6
-2 -2 -1 -1 -2 -2 -2 -2 -2 -1 -1 0 1 1 1 1 1 1 1 0 0 -0 -0 -1 -1 -1 -1 -1 -1 -2 -2 -3 -2 -3 -5 -4 -4 -4 -4 -5 -6 -6 -6
-3 -3 -2 -2 -2 -2 -2 -2 -2 -2 -2 -2 -1 -0 1 1 1 1 1 1 1 1 -0 -1 -1 -0 -1 -1 -1 -1 -3 -3 -2 -3 -4 -4 -4 -4 -5 -6 -6 -6 -6
-3 -3 -3 -3 -3 -3 -3 -3 -3 -3 -2 -2 -2 -2 -1 -1 -0 0 0 1 1 1 -0 -0 -1 -1 -1 -1 -1 -2 -2 -3 -3 -4 -4 -4 -4 -4 -5 -6 -7 -7 -7
-4 -4 -4 -4 -3 -4 -4 -4 -4 -4 -3 -3 -3 -3 -2 -2 -1 -1 -0 -0 -0 0 0 -0 -3 -2 -2 -2 -2 -3 -2 -2 -4 -4 -5 -5 -4 -5 -6 -7 -7 -7 -7
-5 -5 -5 -5 -5 -5 -5 -4 -4 -4 -4 -4 -4 -3 -3 -3 -3 -2 -2 -1 -1 -1 -2 -2 -3 -4 -4 -2 -3 -3 -3 -4 -4 -4 -5 -5 -4 -6 -6 -7 -8 -7 -6
-6 -6 -5 -5 -5 -5 -5 -5 -4 -4 -4 -4 -4 -4 -3 -3 -3 -3 -3 -2 -2 -3 -3 -4 -3 -4 -3 -3 -4 -3 -4 -5 -5 -6 -5 -5 -6 -6 -7 -7 -8 -7 -7
-6 -6 -6 -6 -6 -6 -6 -6 -5 -5 -5 -5 -5 -4 -4 -4 -3 -3 -3 -4 -3 -4 -5 -3 -3 -3 -4 -4 -3 -4 -5 -5 -5 -6 -5 -6 -6 -7 -7 -8 -8 -7 -7
-5 -5 -6 -6 -6 -5 -5 -5 -5 -5 -5 -5 -5 -5 -4 -4 -4 -3 -4 -4 -4 -5 -4 -4 -3 -3 -4 -4 -5 -5 -6 -6 -6 -6 -6 -7 -7 -7 -7 -8 -8 -8 -8
-7 -6 -6 -6 -6 -7 -7 -7 -7 -6 -6 -6 -6 -5 -5 -5 -5 -4 -5 -5 -6 -5 -5 -4 -4 -4 -4 -6 -6 -6 -6 -6 -6 -6 -6 -7 -8 -8 -8 -8 -9 -8 -8
-9 -9 -8 -7 -7 -7 -7 -7 -7 -7 -7 -7 -7 -7 -6 -6 -6 -6 -6 -6 -5 -5 -5 -5 -4 -5 -5 -6 -6 -6 -6 -7 -6 -6 -7 -8 -8 -9 -10 -9 -8 -8 -8
-10 -10 -9 -9 -8 -8 -8 -8 -8 -8 -8 -8 -7 -7 -7 -6 -6 -6 -6 -6 -6 -6 -6 -5 -5 -5 -6 -6 -6 -6 -6 -6 -6 -7 -9 -9 -9 -9 -10 -9 -9 -9 -9
-12 -12 -12 -11 -10 -10 -9 -9 -9 -9 -9 -9 -9 -8 -8 -8 -7 -7 -7 -7 -7 -7 -6 -6 -6 -6 -6 -6 -6 -6 -6 -6 -8 -9 -9 -9 -9 -10 -10 -10 -10 -10 -9
-14 -14 -14 -13 -13 -12 -11 -10 -10 -10 -10 -10 -10 -9 -9 -8 -9 -8 -8 -7 -7 -7 -7 -7 -7 -7 -7 -7 -7 -7 -7 -9 -9 -9 -9 -9 -10 -11 -10 -10 -10 -10 -10
Height
3068 3067 3072 3079 3081 3086 3091 3095 3098 3102 3105 3109 3114 3118 3122 3125 3128 3132 3134 3137 3139 3141 3143 3145 3147 3150 3152 3153 3154 3154 3155 3156 3157 3159 3159 3159 3158 3158 3158 3157 3157 3157 3156
3069 3071 3072 3067 3072 3078 3086 3090 3093 3097 3102 3106 3110 3113 3116 3120 3123 3127 3130 3133 3136 3138 3140 3142 3144 3146 3147 3148 3150 3151 3152 3153 3153 3154 3154 3154 3156 3155 3155 3153 3153 3153 3152
3067 3067 3070 3068 3073 3075 3079 3086 3088 3092 3097 3100 3103 3107 3110 3114 3119 3123 3127 3129 3131 3133 3136 3138 3140 3141 3143 3145 3146 3147 3147 3148 3149 3149 3149 3148 3150 3149 3149 3150 3149 3148 3147
3066 3066 3071 3071 3074 3076 3074 3080 3082 3085 3090 3096 3100 3104 3109 3113 3118 3121 3122 3124 3127 3129 3131 3133 3135 3136 3138 3139 3141 3142 3143 3143 3144 3143 3144 3143 3144 3143 3144 3143 3142 3141 3141
3066 3068 3073 3077 3076 3075 3076 3076 3079 3084 3088 3091 3096 3101 3105 3109 3112 3114 3116 3118 3121 3123 3125 3127 3128 3130 3132 3133 3133 3134 3136 3137 3138 3138 3139 3139 3138 3138 3137 3137 3136 3135 3134
3066 3069 3073 3076 3077 3076 3077 3075 3077 3080 3085 3089 3091 3095 3100 3104 3106 3110 3112 3114 3116 3117 3119 3121 3122 3123 3124 3125 3126 3127 3128 3129 3130 3131 3131 3131 3131 3132 3130 3130 3129 3128 3128
3071 3071 3074 3074 3075 3075 3076 3075 3077 3080 3084 3087 3087 3090 3094 3097 3099 3102 3105 3108 3110 3112 3115 3116 3117 3118 3119 3120 3120 3121 3122 3123 3124 3124 3125 3124 3124 3125 3123 3123 3123 3121 3120
3073 3073 3073 3073 3073 3073 3075 3077 3078 3080 3079 3081 3083 3085 3087 3090 3093 3094 3097 3098 3100 3103 3105 3106 3108 3110 3111 3112 3113 3113 3114 3115 3116 3116 3116 3116 3116 3116 3116 3115 3115 3113 3112
3074 3072 3073 3072 3072 3072 3072 3072 3074 3076 3078 3078 3078 3079 3081 3082 3084 3086 3088 3090 3092 3096 3095 3096 3097 3099 3101 3103 3104 3105 3106 3107 3107 3106 3106 3106 3106 3105 3106 3105 3105 3107 3106
3074 3074 3073 3072 3072 3070 3067 3067 3069 3071 3072 3073 3072 3073 3074 3075 3077 3078 3079 3081 3084 3085 3089 3090 3089 3091 3092 3094 3095 3096 3097 3098 3098 3098 3097 3097 3095 3094 3094 3094 3095 3096 3098
3069 3068 3066 3065 3067 3066 3066 3065 3064 3064 3065 3066 3067 3067 3068 3067 3067 3068 3070 3073 3073 3075 3080 3081 3082 3083 3085 3086 3087 3088 3089 3089 3088 3088 3087 3086 3083 3081 3079 3081 3086 3089 3091
3064 3062 3060 3060 3060 3058 3059 3059 3060 3061 3060 3059 3059 3058 3059 3059 3058 3059 3058 3064 3066 3066 3067 3070 3070 3072 3075 3076 3078 3079 3080 3080 3079 3077 3076 3074 3074 3075 3073 3075 3078 3082 3083
3060 3059 3056 3054 3053 3053 3053 3053 3053 3052 3053 3053 3052 3051 3051 3050 3052 3052 3052 3053 3055 3057 3056 3058 3058 3060 3061 3062 3065 3066 3066 3067 3067 3065 3064 3063 3065 3065 3066 3067 3069 3074 3078
3059 3056 3054 3052 3051 3050 3048 3048 3046 3044 3045 3045 3043 3043 3042 3042 3042 3042 3042 3044 3045 3045 3046 3047 3048 3047 3048 3051 3053 3053 3052 3053 3053 3053 3055 3057 3058 3057 3057 3060 3063 3067 3070
3055 3055 3054 3052 3050 3048 3046 3043 3042 3041 3041 3039 3036 3034 3033 3033 3032 3032 3033 3032 3033 3033 3031 3037 3040 3036 3037 3037 3039 3040 3041 3042 3041 3044 3048 3049 3049 3050 3050 3055 3058 3060 3062
3050 3049 3048 3047 3046 3044 3043 3041 3039 3038 3035 3033 3031 3028 3026 3024 3023 3023 3023 3022 3021 3021 3022 3023 3029 3029 3027 3028 3030 3032 3031 3032 3036 3039 3040 3041 3043 3044 3046 3049 3052 3053 3054
3045 3043 3041 3039 3037 3036 3034 3032 3030 3028 3026 3025 3024 3021 3019 3018 3017 3014 3014 3013 3013 3012 3010 3010 3015 3016 3017 3021 3019 3022 3023 3026 3027 3030 3031 3033 3037 3038 3041 3043 3045 3046 3047
3040 3037 3033 3031 3029 3026 3023 3021 3020 3019 3017 3016 3014 3013 3011 3010 3010 3007 3006 3003 3002 3000 3000 2999 3001 3005 3008 3010 3010 3010 3014 3016 3018 3021 3024 3024 3027 3031 3033 3036 3038 3039 3039
3033 3029 3025 3022 3019 3018 3015 3012 3011 3010 3008 3008 3005 3003 3002 3001 2999 2998 2996 2993 2991 2990 2991 2992 2993 2995 2998 3000 3000 3002 3004 3007 3010 3013 3018 3018 3019 3024 3027 3029 3032 3033 3033
3023 3019 3016 3012 3009 3008 3005 3001 2999 2998 2997 2997 2994 2992 2992 2990 2989 2988 2985 2983 2981 2980 2979 2980 2983 2985 2987 2989 2990 2993 2996 2998 3001 3004 3007 3010 3013 3016 3020 3022 3025 3026 3027
3009 3004 2999 2996 2995 2992 2989 2986 2984 2983 2984 2982 2981 2980 2979 2978 2976 2975 2974 2971 2969 2969 2969 2971 2972 2974 2976 2978 2981 2985 2987 2990 2993 2997 2999 3003 3007 3012 3012 3016 3019 3020 3019
2998 2990 2983 2979 2977 2974 2971 2969 2967 2968 2967 2965 2964 2965 2965 2964 2963 2963 2962 2961 2959 2959 2960 2961 2961 2964 2966 2969 2972 2977 2980 2983 2987 2989 2992 2996 3001 3004 3006 3008 3010 3011 3011
2976 2975 2971 2963 2960 2956 2953 2947 2947 2947 2948 2946 2947 2949 2949 2949 2949 2950 2951 2949 2949 2948 2950 2950 2951 2954 2957 2960 2964 2968 2973 2976 2979 2982 2985 2989 2993 2996 2999 3001 3003 3003 3002
2964 2957 2950 2947 2944 2942 2938 2933 2929 2928 2928 2927 2930 2933 2934 2934 2934 2936 2938 2938 2938 2938 2939 2939 2940 2942 2946 2950 2955 2960 2963 2967 2970 2974 2978 2983 2986 2989 2992 2995 2996 2995 2994
2956 2948 2940 2933 2927 2922 2920 2918 2915 2911 2911 2911 2913 2917 2919 2918 2920 2922 2924 2926 2927 2927 2928 2928 2931 2933 2937 2942 2946 2951 2955 2957 2962 2967 2972 2976 2979 2983 2987 2988 2988 2987 2985
2951 2942 2933 2923 2916 2909 2904 2902 2900 2899 2898 2897 2899 2901 2903 2905 2907 2909 2911 2914 2916 2916 2916 2917 2921 2925 2929 2934 2937 2939 2945 2952 2956 2961 2965 2969 2972 2977 2979 2980 2979 2978 2975
Wind_Speed
22 28 38 31 34 28 31 32 34 34 34 32 30 29 26 26 26 25 25 25 24 24 25 25 25 24 23 23 24 24 23 23 21 20 20 19 20 19 18 19 20 20 20
5 21 23 24 34 24 25 26 31 34 32 30 29 29 29 27 27 26 25 25 25 26 26 26 26 26 27 27 27 26 25 25 24 22 23 24 22 21 21 20 21 22 22
8 5 29 23 21 17 15 21 27 30 31 31 32 32 32 31 29 27 26 26 26 26 26 27 28 28 28 27 28 28 28 26 26 27 27 25 23 22 23 23 24 24 24
9 8 7 3 9 7 14 9 26 30 30 30 30 30 27 26 23 23 25 26 27 27 28 28 29 29 29 29 28 29 29 29 29 29 28 27 27 27 24 24 24 25 25
8 5 4 4 9 8 10 3 14 23 28 28 27 26 26 25 27 28 30 30 29 30 30 31 31 31 31 31 32 32 30 30 29 29 28 28 29 30 27 26 26 27 27
5 4 3 4 9 8 11 12 10 18 23 25 25 24 24 24 25 27 30 31 31 32 33 33 33 34 35 35 34 33 33 32 31 31 31 31 30 30 31 29 28 28 29
3 4 8 9 10 10 11 7 13 19 21 20 20 20 20 22 25 27 30 32 33 33 32 33 34 34 34 35 35 34 34 33 32 32 31 32 32 32 32 31 30 29 30
12 11 5 7 10 11 14 14 9 20 19 23 28 22 25 26 28 31 33 35 37 36 35 36 36 36 36 36 36 36 36 35 34 34 34 34 34 34 33 33 33 32 30
9 10 8 6 6 8 12 16 18 16 18 28 28 32 32 31 32 33 35 40 39 41 38 40 39 37 39 39 40 39 39 38 37 38 38 38 38 37 37 37 31 29 29
14 12 12 11 9 8 9 13 17 20 20 22 21 30 40 37 35 39 38 40 42 39 40 44 41 41 40 41 41 41 40 41 41 42 43 42 43 44 44 38 29 26 26
17 18 14 15 15 13 13 14 15 18 20 23 26 28 28 31 35 38 37 39 38 41 43 42 43 44 43 42 42 41 43 45 46 47 48 50 49 53 52 31 23 21 25
17 19 18 13 13 16 18 18 20 23 24 24 24 26 29 30 33 42 40 38 42 43 44 48 48 48 46 44 44 46 47 48 50 52 55 55 53 47 34 26 22 23 25
21 19 15 15 13 13 14 16 20 22 25 30 29 29 29 29 32 38 44 39 39 46 41 51 50 56 52 49 48 50 51 52 54 54 55 56 46 37 32 22 20 22 27
17 14 11 9 9 7 7 9 10 14 18 24 28 32 33 34 33 35 41 41 39 44 55 44 41 42 54 50 52 53 56 58 56 57 53 44 40 37 27 21 20 23 26
7 5 5 5 5 7 10 12 12 13 14 16 19 26 31 34 36 37 39 41 41 44 43 41 45 41 44 39 55 57 58 59 53 46 43 39 40 30 22 20 23 23 25
11 14 15 14 13 14 15 17 18 18 19 19 20 22 24 31 34 36 36 39 41 42 44 46 48 44 39 39 40 44 49 48 49 37 37 39 35 26 21 21 22 23 26
16 18 21 20 20 19 21 23 23 24 24 23 23 25 27 29 31 33 36 38 39 41 41 41 48 48 41 43 42 41 36 37 37 37 38 34 28 24 22 22 24 25 24
22 21 23 25 25 26 25 29 29 28 29 30 30 33 31 32 34 36 34 34 36 38 36 33 34 38 38 38 40 37 32 32 36 37 34 31 27 26 24 25 23 23 24
28 30 33 35 36 36 34 38 38 37 37 37 40 43 42 40 43 40 38 35 33 34 32 31 29 24 33 33 36 37 36 36 32 30 33 30 27 26 27 24 23 23 25
43 46 47 46 46 44 47 49 50 51 48 47 49 50 51 47 46 44 37 35 36 31 31 30 30 34 33 33 35 34 34 33 33 36 35 29 26 28 25 24 23 23 27
59 62 62 60 61 61 60 61 60 58 55 55 57 54 52 51 45 45 38 35 34 31 32 32 38 36 34 33 33 35 33 34 36 36 30 27 28 27 25 24 24 27 26
54 61 63 63 61 56 52 52 52 50 47 47 46 47 43 41 40 43 38 33 31 32 32 35 34 39 33 32 36 36 36 37 35 32 29 29 28 27 25 22 25 27 28
54 52 53 56 59 60 60 60 55 51 46 46 43 41 42 41 38 39 39 34 31 36 36 35 37 34 33 37 39 37 35 37 36 32 32 30 29 28 23 24 27 27 28
45 47 49 49 49 48 50 52 53 50 47 49 47 46 43 43 42 42 43 40 35 35 32 39 33 35 36 39 41 35 36 39 37 35 31 31 31 26 22 27 27 26 27
38 40 41 43 45 45 43 41 42 44 44 46 48 46 46 43 42 41 40 39 37 35 32 31 39 37 39 43 41 39 37 41 36 32 32 31 28 23 25 25 24 25 27
38 39 40 40 40 39 38 35 34 38 41 43 42 42 44 42 38 37 36 36 36 33 31 30 35 41 43 46 49 51 39 31 32 33 32 31 26 23 24 24 24 25 26
Wind_Direction
248 265 261 273 209 211 217 208 203 204 205 207 210 213 216 219 219 220 222 222 223 225 227 228 230 232 236 237 236 237 239 241 241 242 246 250 253 256 258 265 269 271 276
313 253 249 253 199 187 211 211 205 205 206 208 209 212 215 218 220 220 222 226 229 230 232 233 235 236 234 236 241 243 244 247 248 249 247 248 253 258 264 265 270 273 275
44 297 264 193 198 221 201 213 210 208 209 209 211 214 216 218 222 226 228 230 231 234 235 237 239 240 243 245 245 245 248 250 250 250 252 255 256 257 258 267 270 274 276
51 43 337 298 269 320 333 212 210 204 206 215 217 220 224 227 230 233 234 234 235 237 238 240 241 244 245 245 248 250 251 251 253 254 257 259 260 258 260 263 269 273 276
62 83 41 319 309 331 353 90 209 210 213 213 221 228 230 231 232 233 234 236 237 239 240 241 242 243 245 246 247 247 248 251 253 256 258 260 263 264 264 265 269 271 275
46 37 14 298 287 297 307 268 229 229 218 220 220 226 232 237 241 246 248 246 243 241 242 242 243 243 242 243 244 246 248 249 251 254 255 258 261 265 267 269 270 272 273
334 291 287 296 302 267 277 312 239 209 210 231 219 221 224 233 239 244 247 249 250 249 250 251 250 249 248 248 248 249 250 251 253 255 258 260 263 266 268 270 269 270 273
50 47 15 313 288 288 248 250 246 237 226 224 231 241 244 246 250 246 247 247 244 243 242 244 245 247 247 246 247 248 249 250 252 255 258 260 261 263 264 264 265 267 268
357 346 344 340 325 280 263 257 253 253 249 249 251 225 233 246 237 250 254 250 247 245 242 242 240 240 242 243 245 246 247 248 249 251 253 255 257 256 256 255 259 265 271
328 318 300 285 282 283 279 264 260 261 258 264 252 247 252 258 258 259 263 252 248 249 248 246 243 243 242 243 245 246 247 248 250 251 252 251 252 253 256 250 244 252 266
329 328 310 284 284 280 270 266 266 262 258 259 260 257 256 258 256 258 252 258 254 244 247 249 250 249 249 251 251 250 250 249 251 251 251 249 247 253 250 246 251 263 267
326 324 322 311 291 286 282 273 267 268 269 268 264 260 260 261 258 253 256 250 254 244 245 250 246 249 250 249 251 252 253 254 254 253 253 253 255 263 253 250 253 263 270
317 326 323 317 314 307 300 285 278 276 274 270 270 271 268 264 260 259 260 260 257 253 260 255 251 252 243 244 246 251 252 252 252 253 256 262 268 247 245 243 252 264 270
348 341 331 320 321 346 3 350 327 299 283 271 266 267 271 271 268 262 263 259 258 262 261 267 264 267 252 246 248 248 249 252 256 256 256 270 253 241 237 237 247 259 268
308 282 263 270 274 287 306 313 322 323 317 307 287 271 264 267 270 270 267 263 258 259 267 263 268 263 279 271 255 248 252 254 260 266 270 262 248 238 231 242 251 262 275
246 250 259 264 271 283 298 301 306 310 311 311 311 301 291 277 271 270 274 272 267 262 259 257 257 265 270 270 276 277 277 262 266 266 256 253 243 240 238 242 253 265 272
249 249 257 263 269 280 289 292 299 305 305 307 314 319 306 295 287 279 273 273 274 270 265 262 252 260 261 267 264 273 267 270 257 255 255 243 241 240 240 247 255 265 272
260 254 258 258 261 267 273 277 280 287 292 298 301 307 311 312 307 286 279 273 273 274 268 265 266 262 259 256 261 262 267 260 250 250 237 230 239 235 241 248 257 264 268
278 273 265 263 263 265 272 276 275 279 282 290 297 304 304 305 313 301 282 275 273 272 268 259 261 258 253 253 257 256 254 250 246 239 232 239 230 235 240 251 255 261 269
284 287 284 276 274 278 282 282 288 288 286 289 293 296 298 301 302 300 286 277 275 267 257 260 254 253 248 252 255 248 244 239 235 227 231 229 230 237 243 247 251 264 271
286 290 292 291 288 289 290 289 288 286 290 290 293 293 293 296 297 295 278 282 275 264 251 259 252 249 253 251 249 244 239 234 231 230 229 226 233 239 243 241 251 263 277
288 288 290 289 289 289 285 282 282 283 282 282 281 284 280 279 282 282 269 273 274 264 256 257 256 244 245 243 243 237 242 238 233 231 229 229 235 237 235 249 261 270 279
297 291 282 283 284 285 287 286 283 277 270 268 268 267 265 265 267 267 265 269 274 258 254 259 250 248 240 237 233 238 236 234 231 231 228 229 233 231 233 250 263 272 284
308 305 302 297 290 285 282 282 282 280 273 266 264 260 260 263 261 264 264 263 267 265 263 253 247 243 234 231 232 228 233 233 231 227 225 229 228 225 236 254 265 278 289
328 324 318 311 305 298 290 286 279 270 268 266 268 269 264 261 259 262 261 256 264 273 264 263 250 235 233 233 227 229 235 234 228 223 227 228 222 226 246 259 272 283 293
343 342 338 329 320 310 299 285 274 268 267 262 263 264 264 261 259 256 259 252 258 267 259 255 245 240 236 233 227 227 229 221 223 226 227 221 220 236 253 265 277 288 294